Location: Lugrin
(46.4033°N, 6.6674°E)
Time: 06:46:05
(UTC+00:00)

Tsikada Rocket - Pass Details

Date: 17 January 2021
Orbit: 958 x 1009 km, 82.9° (Epoch: 06 March)

Event Time Altitude Azimuth Distance (km) Brightness Sun altitude
Exits shadow 03:52:37 47° 138° (SE) 1,254 4.6 -33.8°
Drops below altitude 10° 03:57:01 10° 161° (SSE) 2,682 6.4 -33.0°
Sets 03:59:32 0° 164° (SSE) 3,625 7.1 -32.6°
